sat.trackr.live / text

‹ back to catalog

STARLINK-32408

NORAD 62054 · 2024-216Y

PAYLOAD ACTIVE UNKNOWN

§ Identity

Operator
Country
US
Launch date
2024-11-21
Launch site
AFETR
Launch vehicle
Mass (kg)
RCS (m²)

Purposes: comms

External: N2YO · Heavens-Above · Gunter

§ Orbital elements

Epoch: 2026-05-25T02:44:47.311872Z

Period
94.27 min
Inclination
42.9991°
Eccentricity
0.0001494
Mean motion
15.27589812 rev/d
Perigee alt
482.0 km
Apogee alt
484.0 km
Semi-major
6,861.2 km
B*
4.1311e-4
RAAN
184.7302°
Arg perigee
280.8961°
Mean anomaly
79.1723°
Rev number
8,557

§ Raw data

STARLINK-324081 62054U 24216Y   26145.11443648  .00011126  00000+0  41311-3 0  99942 62054  42.9991 184.7302 0001494 280.8961  79.1723 15.27589812 85572

JSON: /api/v1/satellites/62054 · /tle

For live sub-satellite position, see the globe view (requires WebGL).

§ Visibility from observer

Set your observer location to see the next 7 days of passes ≥ 10°. The values pass through the URL so the page stays shareable.

No JS? Fill the form by hand. The geolocation button needs JavaScript.